H1 CPF 2 NER 2025 8 5 9 217 01 glonass129 H2 1106402 9129 37868 2025 8 5 0 0 0 2025 8 8 23 45 0 900 1 1 0 0 0 1 H9 10 0 60892 0.00000 0 -15919808.261 5068365.338 19331368.165 10 0 60892 900.00000 0 -14327126.382 3171788.394 20915148.390 10 0 60892 1800.00000 0 -12784800.114 1021436.246 22094695.958 10 0 60892 2700.00000 0 -11346558.812 -1340180.304 22847131.807 10 0 60892 3600.00000 0 -10058325.266 -3860801.494 23157782.360 10 0 60892 4500.00000 0 -8956375.719 -6480336.175 23020468.030 10 0 60892 5400.00000 0 -8065916.434 -9133112.615 22437633.899 10 0 60892 6300.00000 0 -7400135.717 -11750372.082 21420319.308 10 0 60892 7200.00000 0 -6959771.197 -14262904.399 19987965.655 10 0 60892 8100.00000 0 -6733211.191 -16603718.358 18168064.326 10 0 60892 9000.00000 0 -6697127.145 -18710637.662 15995649.446 10 0 60892 9900.00000 0 -6817612.164 -20528715.211 13512643.018 10 0 60892 10800.00000 0 -7051779.369 -22012365.197 10767062.930 10 0 60892 11700.00000 0 -7349754.184 -23127123.267 7812107.262 10 0 60892 12600.00000 0 -7656977.476 -23850959.777 4705131.196 10 0 60892 13500.00000 0 -7916722.595 -24175089.346 1506535.565 10 0 60892 14400.00000 0 -8072719.427 -24104240.825 -1721411.594 10 0 60892 15300.00000 0 -8071773.139 -23656374.493 -4915796.963 10 0 60892 16200.00000 0 -7866264.773 -22861857.017 -8014302.483 10 0 60892 17100.00000 0 -7416425.257 -21762128.019 -10956438.676 10 0 60892 18000.00000 0 -6692283.697 -20407914.341 -13684744.758 10 0 60892 18900.00000 0 -5675204.587 -18857067.777 -16145930.049 10 0 60892 19800.00000 0 -4358946.201 -17172118.569 -18291932.455 10 0 60892 20700.00000 0 -2750193.168 -15417649.336 -20080871.589 10 0 60892 21600.00000 0 -868539.005 -13657601.793 -21477876.620 10 0 60892 22500.00000 0 1254081.780 -11952631.313 -22455771.870 10 0 60892 23400.00000 0 3574488.588 -10357622.011 -22995606.423 10 0 60892 24300.00000 0 6039830.600 -8919467.634 -23087017.620 10 0 60892 25200.00000 0 8589577.063 -7675211.659 -22728421.968 10 0 60892 26100.00000 0 11157837.885 -6650624.151 -21927030.718 10 0 60892 27000.00000 0 13675916.700 -5859273.790 -20698691.026 10 0 60892 27900.00000 0 16074989.038 -5302132.073 -19067557.195 10 0 60892 28800.00000 0 18288793.354 -4967723.846 -17065599.829 10 0 60892 29700.00000 0 20256222.600 -4832815.044 -14731963.901 10 0 60892 30600.00000 0 21923708.699 -4863605.856 -12112189.528 10 0 60892 31500.00000 0 23247301.392 -5017376.366 -9257311.848 10 0 60892 32400.00000 0 24194356.205 -5244512.973 -6222858.488 10 0 60892 33300.00000 0 24744762.970 -5490828.294 -3067764.845 10 0 60892 34200.00000 0 24891665.786 -5700075.435 146771.228 10 0 60892 35100.00000 0 24641646.623 -5816549.928 3358472.937 10 0 60892 36000.00000 0 24014367.155 -5787669.573 6505183.515 10 0 60892 36900.00000 0 23041685.724 -5566423.835 9526057.881 10 0 60892 37800.00000 0 21766287.840 -5113590.433 12362724.835 10 0 60892 38700.00000 0 20239888.350 -4399626.762 14960398.500 10 0 60892 39600.00000 0 18521080.610 -3406157.535 17268918.996 10 0 60892 40500.00000 0 16672921.984 -2126996.799 19243703.860 10 0 60892 41400.00000 0 14760355.319 -568661.628 20846593.589 10 0 60892 42300.00000 0 12847572.355 1249644.485 22046576.520 10 0 60892 43200.00000 0 10995427.039 3296578.995 22820380.492 10 0 60892 44100.00000 0 9259004.482 5529717.464 23152920.836 10 0 60892 45000.00000 0 7685445.012 7897078.890 23037596.524 10 0 60892 45900.00000 0 6312112.388 10339058.558 22476428.721 10 0 60892 46800.00000 0 5165181.530 12790691.083 21480038.320 10 0 60892 47700.00000 0 4258704.250 15184152.468 20067461.646 10 0 60892 48600.00000 0 3594192.207 17451399.717 18265806.133 10 0 60892 49500.00000 0 3160735.260 19526840.221 16109750.508 10 0 60892 50400.00000 0 2935651.450 21349920.921 13640896.915 10 0 60892 51300.00000 0 2885642.664 22867529.697 10906985.320 10 0 60892 52200.00000 0 2968408.722 24036108.220 7960983.467 10 0 60892 53100.00000 0 3134652.883 24823386.622 4860068.595 10 0 60892 54000.00000 0 3330394.673 25209665.531 1664519.777 10 0 60892 54900.00000 0 3499492.120 25188589.563 -1563457.797 10 0 60892 55800.00000 0 3586265.774 24767377.589 -4760953.230 10 0 60892 56700.00000 0 3538111.788 23966498.243 -7865590.132 10 0 60892 57600.00000 0 3307991.118 22818802.858 -10816760.930 10 0 60892 58500.00000 0 2856686.747 21368151.613 -13556829.204 10 0 60892 59400.00000 0 2154730.483 19667590.685 -16032274.557 10 0 60892 60300.00000 0 1183915.027 17777157.783 -18194755.701 10 0 60892 61200.00000 0 -61675.107 15761409.630 -20002069.228 10 0 60892 62100.00000 0 -1575159.350 13686776.916 -21418984.007 10 0 60892 63000.00000 0 -3336906.174 11618859.530 -22417934.065 10 0 60892 63900.00000 0 -5315126.384 9619777.139 -22979556.067 10 0 60892 64800.00000 0 -7466989.820 7745687.356 -23093061.062 10 0 60892 65700.00000 0 -9740218.244 6044576.019 -22756433.879 10 0 60892 66600.00000 0 -12075086.921 4554411.961 -21976457.227 10 0 60892 67500.00000 0 -14406750.178 3301742.554 -20768561.282 10 0 60892 68400.00000 0 -16667792.803 2300787.098 -19156503.065 10 0 60892 69300.00000 0 -18790899.850 1553063.692 -17171883.320 10 0 60892 70200.00000 0 -20711532.932 1047562.387 -14853511.716 10 0 60892 71100.00000 0 -22370501.207 761454.273 -12246634.062 10 0 60892 72000.00000 0 -23716320.155 661303.638 -9402037.773 10 0 60892 72900.00000 0 -24707260.582 704729.368 -6375053.983 10 0 60892 73800.00000 0 -25313003.713 842443.212 -3224476.441 10 0 60892 74700.00000 0 -25515834.914 1020577.189 -11418.726 10 0 60892 75600.00000 0 -25311328.170 1183200.822 3201867.885 10 0 60892 76500.00000 0 -24708494.680 1274921.555 6353193.119 10 0 60892 77400.00000 0 -23729391.212 1243458.779 9381620.239 10 0 60892 78300.00000 0 -22408206.064 1042083.580 12228630.177 10 0 60892 79200.00000 0 -20789861.797 631822.360 14839235.976 10 0 60892 80100.00000 0 -18928193.426 -16667.412 17163027.386 10 0 60892 81000.00000 0 -16883777.781 -921627.259 19155127.118 10 0 60892 81900.00000 0 -14721503.517 -2089194.760 20777041.978 10 0 60892 82800.00000 0 -12507981.518 -3512909.672 21997394.046 10 0 60892 83700.00000 0 -10308901.522 -5173750.445 22792519.191 10 0 60892 84600.00000 0 -8186442.790 -7040701.045 23146922.380 10 0 60892 85500.00000 0 -6196844.430 -9071826.436 23053581.508 10 0 60893 0.00000 0 -4388234.669 -11215814.321 22514093.880 10 0 60893 900.00000 0 -2798806.989 -13413922.977 21538661.499 10 0 60893 1800.00000 0 -1455420.576 -15602254.168 20145914.986 10 0 60893 2700.00000 0 -372679.889 -17714263.050 18362576.858 10 0 60893 3600.00000 0 447465.445 -19683399.981 16222969.181 10 0 60893 4500.00000 0 1015583.882 -21445776.752 13768372.690 10 0 60893 5400.00000 0 1354092.795 -22942746.547 11046247.596 10 0 60893 6300.00000 0 1496083.788 -24123289.634 8109329.227 10 0 60893 7200.00000 0 1483690.844 -24946103.909 5014614.566 10 0 60893 8100.00000 0 1366069.407 -25381310.981 1822258.437 10 0 60893 9000.00000 0 1197071.607 -25411703.975 -1405599.477 10 0 60893 9900.00000 0 1032716.511 -25033482.207 -4606053.465 10 0 60893 10800.00000 0 928563.693 -24256439.530 -7716671.693 10 0 60893 11700.00000 0 937103.342 -23103596.453 -10676731.438 10 0 60893 12600.00000 0 1105275.833 -21610290.130 -13428423.616 10 0 60893 13500.00000 0 1472228.561 -19822759.878 -15918001.043 10 0 60893 14400.00000 0 2067407.725 -17796287.737 -18096846.040 10 0 60893 15300.00000 0 2909068.365 -15592973.034 -19922434.755 10 0 60893 16200.00000 0 4003267.737 -13279235.629 -21359178.001 10 0 60893 17100.00000 0 5343386.114 -10923154.111 -22379121.359 10 0 60893 18000.00000 0 6910196.207 -8591752.089 -22962490.452 10 0 60893 18900.00000 0 8672478.570 -6348347.451 -23098070.935 10 0 60893 19800.00000 0 10588156.962 -4250076.344 -22783416.369 10 0 60893 20700.00000 0 12605905.286 -2345695.529 -22024880.874 10 0 60893 21600.00000 0 14667157.786 -673754.411 -20837477.160 10 0 60893 22500.00000 0 16708437.234 738788.270 -19244564.062 10 0 60893 23400.00000 0 18663902.614 1877447.313 -17277371.142 10 0 60893 24300.00000 0 20468008.950 2740559.248 -14974371.030 10 0 60893 25200.00000 0 22058167.574 3339084.360 -12380513.053 10 0 60893 26100.00000 0 23377295.590 3695874.079 -9546334.309 10 0 60893 27000.00000 0 24376148.394 3844437.678 -6526966.457 10 0 60893 27900.00000 0 25015338.654 3827262.984 -3381058.291 10 0 60893 28800.00000 0 25266958.612 3693764.125 -169635.575 10 0 60893 29700.00000 0 25115739.499 3497944.460 3045079.566 10 0 60893 30600.00000 0 24559701.277 3295874.212 6200866.968 10 0 60893 31500.00000 0 23610267.214 3143089.400 9236701.694 10 0 60893 32400.00000 0 22291839.910 3092021.423 12093920.017 10 0 60893 33300.00000 0 20640857.472 3189564.788 14717336.765 10 0 60893 34200.00000 0 18704369.657 3474884.351 17056293.808 10 0 60893 35100.00000 0 16538193.190 3977553.193 19065621.115 10 0 60893 36000.00000 0 14204722.187 4716098.517 20706493.477 10 0 60893 36900.00000 0 11770483.435 5697016.090 21947167.977 10 0 60893 37800.00000 0 9303536.236 6914294.676 22763589.362 10 0 60893 38700.00000 0 6870822.641 8349471.214 23139852.675 10 0 60893 39600.00000 0 4535575.868 9972215.944 23068514.728 10 0 60893 40500.00000 0 2354892.354 11741425.238 22550748.401 10 0 60893 41400.00000 0 377566.496 13606779.175 21596336.121 10 0 60893 42300.00000 0 -1357723.228 15510701.745 20223501.446 10 0 60893 43200.00000 0 -2823801.968 17390644.722 18458580.271 10 0 60893 44100.00000 0 -4005902.325 19181602.443 16335535.952 10 0 60893 45000.00000 0 -4902046.057 20818754.354 13895325.471 10 0 60893 45900.00000 0 -5522886.830 22240126.006 11185126.716 10 0 60893 46800.00000 0 -5891019.487 23389157.396 8257439.861 10 0 60893 47700.00000 0 -6039783.754 24217070.325 5169078.780 10 0 60893 48600.00000 0 -6011611.895 24684933.982 1980071.106 10 0 60893 49500.00000 0 -5855989.621 24765339.816 -1247511.939 10 0 60893 50400.00000 0 -5627116.597 24443612.784 -4450772.768 10 0 60893 51300.00000 0 -5381366.400 23718505.364 -7567226.938 10 0 60893 52200.00000 0 -5174655.023 22602342.738 -10536039.252 10 0 60893 53100.00000 0 -5059831.465 21120611.050 -13299230.419 10 0 60893 54000.00000 0 -5084203.418 19311004.789 -15802828.650 10 0 60893 54900.00000 0 -5287305.454 17221972.753 -17997941.770 10 0 60893 55800.00000 0 -5699006.674 14910823.872 -19841727.068 10 0 60893 56700.00000 0 -6338040.062 12441473.181 -21298238.616 10 0 60893 57600.00000 0 -7211017.355 9881923.636 -22339134.561 10 0 60893 58500.00000 0 -8311972.129 7301590.681 -22944230.226 10 0 60893 59400.00000 0 -9622450.805 4768582.792 -23101886.305 10 0 60893 60300.00000 0 -11112147.615 2347052.679 -22809225.202 10 0 60893 61200.00000 0 -12740056.173 94730.247 -22072172.192 10 0 60893 62100.00000 0 -14456088.282 -1939259.896 -20905321.870 10 0 60893 63000.00000 0 -16203090.817 -3716206.283 -19331633.841 10 0 60893 63900.00000 0 -17919174.872 -5209169.983 -17381965.056 10 0 60893 64800.00000 0 -19540258.446 -6403841.184 -15094449.328 10 0 60893 65700.00000 0 -21002715.319 -7298860.049 -12513737.452 10 0 60893 66600.00000 0 -22246018.732 -7905591.629 -9690113.931 10 0 60893 67500.00000 0 -23215269.140 -8247367.581 -6678508.514 10 0 60893 68400.00000 0 -23863500.709 -8358229.648 -3537422.489 10 0 60893 69300.00000 0 -24153670.802 -8281230.463 -327791.172 10 0 60893 70200.00000 0 -24060250.439 -8066365.318 2888195.174 10 0 60893 71100.00000 0 -23570350.558 -7768223.484 6048289.251 10 0 60893 72000.00000 0 -22684338.407 -7443458.744 9091380.709 10 0 60893 72900.00000 0 -21415919.589 -7148185.743 11958663.933 10 0 60893 73800.00000 0 -19791683.308 -6935411.282 14594758.226 10 0 60893 74700.00000 0 -17850130.257 -6852607.666 16948760.121 10 0 60893 75600.00000 0 -15640223.592 -6939529.022 18975209.142 10 0 60893 76500.00000 0 -13219522.554 -7226361.158 20634950.054 10 0 60893 77400.00000 0 -10651975.067 -7732281.744 21895876.557 10 0 60893 78300.00000 0 -8005459.109 -8464490.758 22733543.483 10 0 60893 79200.00000 0 -5349172.691 -9417752.036 23131636.730 10 0 60893 80100.00000 0 -2750978.346 -10574466.007 23082292.411 10 0 60893 81000.00000 0 -274809.883 -11905272.200 22586259.043 10 0 60893 81900.00000 0 2021753.108 -13370158.535 21652899.039 10 0 60893 82800.00000 0 4089643.956 -14920033.631 20300028.261 10 0 60893 83700.00000 0 5890112.203 -16498699.149 18553595.032 10 0 60893 84600.00000 0 7396096.893 -18045142.340 16447202.750 10 0 60893 85500.00000 0 8593112.425 -19496055.007 14021483.105 10 0 60894 0.00000 0 9479609.233 -20788474.826 11323330.069 10 0 60894 900.00000 0 10066793.574 -21862439.638 8405006.034 10 0 60894 1800.00000 0 10377911.768 -22663541.326 5323139.573 10 0 60894 2700.00000 0 10447029.489 -23145273.185 2137628.491 10 0 60894 3600.00000 0 10317355.648 -23271068.331 -1089527.273 10 0 60894 4500.00000 0 10039181.971 -23015941.613 -4295441.182 10 0 60894 5400.00000 0 9667525.732 -22367662.978 -7417579.163 10 0 60894 6300.00000 0 9259576.532 -21327410.144 -10394996.531 10 0 60894 7200.00000 0 8872056.943 -19909870.615 -13169546.706 10 0 60894 8100.00000 0 8558610.972 -18142786.878 -15687036.120 10 0 60894 9000.00000 0 8367333.357 -16065962.662 -17898300.738 10 0 60894 9900.00000 0 8338546.686 -13729771.588 -19760181.399 10 0 60894 10800.00000 0 8502922.571 -11193231.032 -21236377.500 10 0 60894 11700.00000 0 8880028.041 -8521722.734 -22298161.458 10 0 60894 12600.00000 0 9477359.716 -5784456.746 -22924939.555 10 0 60894 13500.00000 0 10289907.050 -3051786.023 -23104648.345 10 0 60894 14400.00000 0 11300262.955 -392484.905 -22833979.446 10 0 60894 15300.00000 0 12479276.496 2128894.170 -22118429.239 10 0 60894 16200.00000 0 13787219.082 4454475.311 -20972173.766 10 0 60894 17100.00000 0 15175413.802 6535223.395 -19417772.592 10 0 60894 18000.00000 0 16588257.932 8332728.789 -17485708.887 10 0 60894 18900.00000 0 17965552.299 9820540.151 -15213776.118 10 0 60894 19800.00000 0 19245038.559 10984992.197 -12646324.650 10 0 60894 20700.00000 0 20365037.017 11825496.848 -9833384.129 10 0 60894 21600.00000 0 21267073.945 12354288.850 -6829679.775 10 0 60894 22500.00000 0 21898388.234 12595639.739 -3693562.448 10 0 60894 23400.00000 0 22214212.701 12584576.153 -485873.852 10 0 60894 24300.00000 0 22179735.329 12365158.873 2731230.912 10 0 60894 25200.00000 0 21771659.334 11988396.857 5895480.749 10 0 60894 26100.00000 0 20979297.983 11509885.235 8945683.166 10 0 60894 27000.00000 0 19805159.485 10987267.102 11822893.760 10 0 60894 27900.00000 0 18264998.422 10477625.678 14471539.188 10 0 60894 28800.00000 0 16387332.070 10034915.719 16840473.245 10 0 60894 29700.00000 0 14212441.746 9707540.986 18883947.305 10 0 60894 30600.00000 0 11790900.106 9536178.184 20562478.073 10 0 60894 31500.00000 0 9181684.397 9551937.454 21843597.488 10 0 60894 32400.00000 0 6449952.217 9774935.639 22702471.719 10 0 60894 33300.00000 0 3664569.816 10213341.675 23122378.378 10 0 60894 34200.00000 0 895492.952 10862934.326 23095033.298 10 0 60894 35100.00000 0 -1788893.676 11707191.718 22620760.599 10 0 60894 36000.00000 0 -4324370.504 12717910.515 21708502.152 10 0 60894 36900.00000 0 -6653305.058 13856330.984 20375665.103 10 0 60894 37800.00000 0 -8726802.667 15074723.301 18647808.703 10 0 60894 38700.00000 0 -10506497.341 16318371.222 16558174.472 10 0 60894 39600.00000 0 -11965908.344 17527872.243 14147066.521 10 0 60894 40500.00000 0 -13091305.365 18641659.571 11461091.852 10 0 60894 41400.00000 0 -13882045.238 19598641.080 8552273.300 10 0 60894 42300.00000 0 -14350364.849 20340844.471 5477050.823 10 0 60894 43200.00000 0 -14520637.780 20815956.620 2295189.480 10 0 60894 44100.00000 0 -14428124.975 20979648.556 -931384.997 10 0 60894 45000.00000 0 -14117271.573 20797585.791 -4139800.023 10 0 60894 45900.00000 0 -13639621.888 20247036.488 -7267474.733 10 0 60894 46800.00000 0 -13051441.344 19318006.743 -10253357.664 10 0 60894 47700.00000 0 -12411147.343 18013852.328 -13039137.498 10 0 60894 48600.00000 0 -11776659.636 16351338.737 -15570401.195 10 0 60894 49500.00000 0 -11202784.500 14360145.190 -17797714.912 10 0 60894 50400.00000 0 -10738745.717 12081832.397 -19677604.776 10 0 60894 51300.00000 0 -10425968.905 9568317.053 -21173416.946 10 0 60894 52200.00000 0 -10296214.611 6879917.327 -22256039.227 10 0 60894 53100.00000 0 -10370140.288 4083051.994 -22904469.676 10 0 60894 54000.00000 0 -10656352.395 1247690.503 -23106221.210 10 0 60894 54900.00000 0 -11150988.574 -1555338.473 -22857554.838 10 0 60894 55800.00000 0 -11837846.783 -4257066.728 -22163537.897 10 0 60894 56700.00000 0 -12689054.763 -6793020.653 -21037927.364 10 0 60894 57600.00000 0 -13666250.128 -9105660.102 -19502881.905 10 0 60894 58500.00000 0 -14722219.652 -11146521.127 -17588509.703 10 0 60894 59400.00000 0 -15802927.123 -12877974.734 -15332262.377 10 0 60894 60300.00000 0 -16849842.915 -14274530.457 -12778188.085 10 0 60894 61200.00000 0 -17802476.098 -15323632.936 -9976059.632 10 0 60894 62100.00000 0 -18601001.828 -16025921.260 -6980395.560 10 0 60894 63000.00000 0 -19188873.224 -16394943.375 -3849394.016 10 0 60894 63900.00000 0 -19515308.110 -16456340.596 -643800.692 10 0 60894 64800.00000 0 -19537546.714 -16246539.191 2574266.984 10 0 60894 65700.00000 0 -19222786.396 -15811006.217 5742516.733 10 0 60894 66600.00000 0 -18549713.294 -15202144.477 8799676.622 10 0 60894 67500.00000 0 -17509567.760 -14476915.905 11686666.226 10 0 60894 68400.00000 0 -16106699.845 -13694293.391 14347722.317 10 0 60894 69300.00000 0 -14358592.166 -12912647.548 16731458.630 10 0 60894 70200.00000 0 -12295349.240 -12187177.112 18791840.909 10 0 60894 71100.00000 0 -9958674.019 -11567489.410 20489060.075 10 0 60894 72000.00000 0 -7400373.052 -11095430.879 21790288.261 10 0 60894 72900.00000 0 -4680450.664 -10803257.244 22670304.562 10 0 60894 73800.00000 0 -1864868.965 -10712218.984 23111979.502 10 0 60894 74700.00000 0 976935.943 -10831620.912 23106609.434 10 0 60894 75600.00000 0 3774681.324 -11158395.458 22654094.497 10 0 60894 76500.00000 0 6459902.461 -11677208.433 21762956.071 10 0 60894 77400.00000 0 8968546.358 -12361094.394 20450192.296 10 0 60894 78300.00000 0 11243388.652 -13172597.018 18740972.732 10 0 60894 79200.00000 0 13236174.454 -14065368.934 16668176.051 10 0 60894 80100.00000 0 14909394.416 -14986166.118 14271777.472 10 0 60894 81000.00000 0 16237621.740 -15877155.002 11598095.575 10 0 60894 81900.00000 0 17208353.447 -16678436.658 8698911.069 10 0 60894 82800.00000 0 17822319.459 -17330682.344 5630473.060 10 0 60894 83700.00000 0 18093245.192 -17777769.086 2452411.063 10 0 60894 84600.00000 0 18047076.371 -17969302.939 -773426.464 10 0 60894 85500.00000 0 17720697.804 -17862921.474 -3984184.120 10 0 60895 0.00000 0 17160199.786 -17426275.734 -7117237.268 10 0 60895 900.00000 0 16418765.278 -16638604.802 -10111431.503 10 0 60895 1800.00000 0 15554268.795 -15491834.156 -12908293.637 10 0 60895 2700.00000 0 14626689.026 -13991147.995 -15453194.139 10 0 60895 3600.00000 0 13695447.172 -12155009.613 -17696432.095 10 0 60895 4500.00000 0 12816785.411 -10014627.147 -19594221.379 10 0 60895 5400.00000 0 12041298.374 -7612886.264 -21109557.034 10 0 60895 6300.00000 0 11411723.716 -5002794.319 -22212943.989 10 0 60895 7200.00000 0 10961086.351 -2245501.577 -22882973.407 10 0 60895 8100.00000 0 10711275.332 592016.950 -23106735.454 10 0 60895 9000.00000 0 10672113.356 3439521.196 -22880060.994 10 0 60895 9900.00000 0 10840957.435 6226199.471 -22207588.361 10 0 60895 10800.00000 0 11202846.253 8883382.604 -21102655.124 10 0 60895 11700.00000 0 11731186.297 11347165.444 -19587018.330 10 0 60895 12600.00000 0 12388945.850 13560826.762 -17690410.119 10 0 60895 13500.00000 0 13130304.535 15476947.684 -15449938.843 10 0 60895 14400.00000 0 13902686.980 17059141.966 -12909348.701 10 0 60895 15300.00000 0 14649093.332 18283328.059 -10118153.548 10 0 60895 16200.00000 0 15310627.206 19138492.541 -7130662.803 10 0 60895 17100.00000 0 15829113.879 19626915.909 -4004919.149 10 0 60895 18000.00000 0 16149698.240 19763854.261 -801569.263 10 0 60895 18900.00000 0 16223313.403 19576693.048 2417310.274 10 0 60895 19800.00000 0 16008916.769 19103610.801 5589409.255 10 0 60895 20700.00000 0 15475400.435 18391810.783 8653379.534 10 0 60895 21600.00000 0 14603096.729 17495395.979 11550007.796 10 0 60895 22500.00000 0 13384816.610 16472977.061 14223343.880 10 0 60895 23400.00000 0 11826378.075 15385113.435 16621764.198 10 0 60895 24300.00000 0 9946602.636 14291693.833 18698951.338 10 0 60895 25200.00000 0 7776779.617 13249364.876 20414772.624 10 0 60895 26100.00000 0 5359619.585 12309113.747 21736042.251 10 0 60895 27000.00000 0 2747738.809 11514104.543 22637153.759 10 0 60895 27900.00000 0 1735.511 10897857.401 23100571.700 10 0 60895 28800.00000 0 -2812064.834 10482845.583 23117173.639 10 0 60895 29700.00000 0 -5624104.451 10279568.748 22686435.927 10 0 60895 30600.00000 0 -8364227.838 10286141.407 21816459.144 10 0 60895 31500.00000 0 -10964349.247 10488414.670 20523831.568 10 0 60895 32400.00000 0 -13361044.462 10860627.619 18833331.684 10 0 60895 33300.00000 0 -15497960.704 11366562.867 16777473.448 10 0 60895 34200.00000 0 -17327945.104 11961159.769 14395900.890 10 0 60895 35100.00000 0 -18814803.042 12592519.414 11734641.543 10 0 60895 36000.00000 0 -19934612.279 13204218.508 8845231.141 10 0 60895 36900.00000 0 -20676536.651 13737835.561 5783724.954 10 0 60895 37800.00000 0 -21043103.753 14135582.891 2609613.930 10 0 60895 38700.00000 0 -21049933.413 14342932.592 -615333.762 10 0 60895 39600.00000 0 -20724927.038 14311123.871 -3828282.865 10 0 60895 40500.00000 0 -20106951.132 13999443.500 -6966568.400 10 0 60895 41400.00000 0 -19244070.249 13377180.191 -9968934.648 10 0 60895 42300.00000 0 -18191404.347 12425167.282 -12776749.729 10 0 60895 43200.00000 0 -17008702.111 11136845.648 -15335170.012 10 0 60895 44100.00000 0 -15757734.280 9518799.340 -17594229.638 10 0 60895 45000.00000 0 -14499618.971 7590739.301 -19509832.027 10 0 60895 45900.00000 0 -13292193.884 5384934.390 -21044622.543 10 0 60895 46800.00000 0 -12187548.065 2945112.883 -22168724.311 10 0 60895 47700.00000 0 -11229818.717 324880.438 -22860322.277 10 0 60895 48600.00000 0 -10453346.731 -2414278.755 -23106084.181 10 0 60895 49500.00000 0 -9881268.744 -5205333.279 -22901410.707 10 0 60895 50400.00000 0 -9524604.390 -7978269.921 -22250510.816 10 0 60895 51300.00000 0 -9381875.905 -10662785.342 -21166301.989 10 0 60895 52200.00000 0 -9439274.232 -13190991.210 -19670138.680 10 0 60895 53100.00000 0 -9671362.432 -15500019.917 -17791375.747 10 0 60895 54000.00000 0 -10042284.372 -17534422.722 -15566776.820 10 0 60895 54900.00000 0 -10507425.430 -19248261.459 -13039780.505 10 0 60895 55800.00000 0 -11015453.103 -20606808.167 -10259639.951 10 0 60895 56700.00000 0 -11510649.766 -21587783.906 -7280453.599 10 0 60895 57600.00000 0 -11935438.018 -22182087.571 -4160106.739 10 0 60895 58500.00000 0 -12232991.451 -22393986.941 -959145.044 10 0 60895 59400.00000 0 -12349820.664 -22240766.710 2260397.830 10 0 60895 60300.00000 0 -12238225.912 -21751850.735 5436195.928 10 0 60895 61200.00000 0 -11858513.842 -20967437.322 8506827.194 10 0 60895 62100.00000 0 -11180885.979 -19936706.207 11412947.827 10 0 60895 63000.00000 0 -10186920.533 -18715673.158 14098423.223 10 0 60895 63900.00000 0 -8870586.117 -17364782.098 16511394.984 10 0 60895 64800.00000 0 -7238745.265 -15946334.996 18605265.007 10 0 60895 65700.00000 0 -5311126.529 -14521865.835 20339579.352 10 0 60895 66600.00000 0 -3119765.541 -13149566.921 21680796.407 10 0 60895 67500.00000 0 -707936.889 -11881873.336 22602926.022 10 0 60895 68400.00000 0 1871380.836 -10763304.672 23088028.341 10 0 60895 69300.00000 0 4557445.530 -9828652.782 23126563.357 10 0 60895 70200.00000 0 7284019.930 -9101590.208 22717584.517 10 0 60895 71100.00000 0 9981876.638 -8593756.982 21868772.127 10 0 60895 72000.00000 0 12581438.634 -8304364.263 20596304.791 10 0 60895 72900.00000 0 15015448.035 -8220332.169 18924569.755 10 0 60895 73800.00000 0 17221554.039 -8316957.426 16885715.730 10 0 60895 74700.00000 0 19144713.393 -8559084.435 14519054.640 10 0 60895 75600.00000 0 20739303.632 -8902732.289 11870321.640 10 0 60895 76500.00000 0 21970860.393 -9297110.785 8990805.705 10 0 60895 77400.00000 0 22817364.981 -9686941.546 5936366.053 10 0 60895 78300.00000 0 23270026.671 -10014986.697 2766352.411 10 0 60895 79200.00000 0 23333525.147 -10224677.910 -457550.348 10 0 60895 80100.00000 0 23025701.200 -10262733.449 -3672530.383 10 0 60895 81000.00000 0 22376707.351 -10081650.553 -6815885.514 10 0 60895 81900.00000 0 21427653.391 -9641965.157 -9826262.722 10 0 60895 82800.00000 0 20228803.806 -8914180.458 -12644874.498 10 0 60895 83700.00000 0 18837403.648 -7880279.773 -15216666.284 10 0 60895 84600.00000 0 17315225.721 -6534756.942 -17491410.215 10 0 60895 85500.00000 0 15725944.144 -4885118.364 -19424701.905 99